Regional Weather Roundup
Issued by NWS Pendleton, OR

Home | Current Version | Previous Version | Text Only | Print | Product List | Glossary On
Versions: 1 2 3 4 5 6 7 8 9 10 11 12 13 14 15 16 17 18 19 20 21 22 23 24 25 26 27 28 29 30 31 32 33 34 35 36 37 38 39 40 41 42 43 44 45 46 47 48 49 50
000
ASUS46 KPDT 061725
RWRPDT
PENDLETON REGIONAL WEATHER ROUNDUP
NATIONAL WEATHER SERVICE PENDLETON OREGON
900 AM PST FRI MAR 6 2015

NOTE: FAIR INDICATES FEW OR NO CLOUDS BELOW 12,000 FEET WITH NO
SIGNIFICANT WEATHER AND/OR OBSTRUCTIONS TO VISIBILITY.

# INDICATES UNOFFICIAL STATION AND DATA

WAZ520-061810-
EAST SLOPES OF WASHINGTON CASCADES

CITY            SKY/WX      TMP DP  RH  WIND    PRES   REMARKS
#BUMPING DAM    N/A         31  N/A N/A CALM    N/A
#CLE ELUM HS    N/A         36  30  79  CALM    30.31R
#CLE ELUM LAKE  N/A         41  34  76  CALM    30.36S
#CLIFFDEL 2NW   N/A         33  27  78  CALM    N/A
#GLENWOOD       N/A         33  31  92  CALM    30.43S
#MANASTASH CYN  N/A         43  34  70  CALM    30.30S
#NELSON         N/A         35  32  89  CALM    30.43R
#NELSON 3SW     N/A         39  33  79  CALM    30.60S
#NILE           N/A         39  30  70  W5      29.68R
#RONALD 2NW     N/A         40  24  52  CALM    30.20R
#SNOWDEN        N/A         43  28  55  CALM    N/A
#TEANAWAY 4NE   N/A         36  31  82  N2      N/A
#TROUT LAKE 1NE N/A         40  35  82  CALM    30.42R
$$

WAZ521-061810-
SIMCOE HIGHLANDS

CITY            SKY/WX      TMP DP  RH  WIND    PRES   REMARKS
#BICKLETON HS   N/A         52  19  27  W7      N/A
#CENTERVILLE 4W N/A         42  34  73  CALM    30.11R
#CENTERVILLE 1SWN/A         36  31  82  CALM    30.40S
#GOLDENDALE     N/A         36  30  79  CALM    N/A
#GOLDENDALE 1NE N/A         38  23  54  CALM    N/A
#GOLDENDALE 5WNWN/A         40  33  76  CALM    30.38R
#GOODNOE HILLS  N/A         46  35  65  W8      N/A
#LYLE 6NE       N/A         41  33  73  CALM    30.38R
$$

WAZ026-061810-
KITTITAS VALLEY

CITY            SKY/WX      TMP DP  RH  WIND    PRES   REMARKS
#ELLENSBURG CWU N/A         38  30  73  CALM    30.35R
#ELLENSBURG 3NE N/A         40  33  76  CALM    30.36R
#ELLENSBURG 1E  N/A         38  30  73  CALM    N/A
#KITTITAS 4N    N/A         43  33  67  SE3     28.67R
#KITTITAS 3S    N/A         34  31  89  CALM    30.41R
#THORP 6N       N/A         40  31  70  W2      30.41S
$$

WAZ027-061810-
YAKIMA VALLEY

CITY            SKY/WX      TMP DP  RH  WIND    PRES   REMARKS
SUNNYSIDE AP    CLOUDY      40  32  73  CALM    30.40S
YAKIMA AIRPORT  CLOUDY      40  31  70  CALM    30.40R
YAKIMA-VAGABOND CLOUDY      39  32  76  W3      30.38S
#DONALD 2NE     N/A         52  26  36  CALM    29.23R
#MABTON         N/A         40  35  82  CALM    30.41R
#NACHES 2SW     N/A         47  33  58  NW3     30.37R
#OUTLOOK DOT    N/A         N/A N/A N/A CALM    N/A
#SELAH 8E       N/A         46  30  53  N1      N/A
#TERRACE HTS    N/A         40  33  76  CALM    30.39S
#WAPATO 4NE     N/A         52  26  36  CALM    29.23R
#WEST VALLEY    N/A         40  32  73  CALM    30.40S
#W YAKIMA       N/A         42  32  67  NW2     30.42R
#WHITE SWAN 5E  N/A         39  35  85  CALM    30.42S
$$

WAZ028-061810-
LOWER COLUMBIA BASIN...WASHINGTON

CITY            SKY/WX      TMP DP  RH  WIND    PRES   REMARKS
HANFORD         CLOUDY      43  28  55  N2      30.38R
PASCO           CLOUDY      41  31  67  CALM    30.43R
PROSSER AWOS    N/A         43  34  70  W2      30.43F
RICHLAND AWOS   CLOUDY      39  30  70  CALM    30.43R
#BASIN CITY 5SW N/A         42  31  65  CALM    30.41R
#BENTON CITY    N/A         41  33  73  CALM    30.33S
#CONNELL 5N     N/A         45  31  58  E2      30.42R
#CONNELL 5NW    N/A         44  32  62  CALM    30.38R
#ELTOPIA        N/A         48  34  58  CALM    30.39R
#ELTOPIA 6NW    N/A         46  32  58  CALM    29.35R
#KAHLOTUS       N/A         38  29  70  S7      30.42S
#KENNEWICK 3S   N/A         42  33  70  CALM    30.43R
#PASCO-BROADMOORN/A         46  32  58  CALM    30.34F
#PATERSON       N/A         40  32  73  CALM    30.41S
#PROSSER        N/A         42  31  65  CALM    30.41S
#SAGEMOOR 2W    N/A         43  31  62  CALM    30.27R
#TOUCHET 2S     N/A         42  33  70  E1      30.41S
#WEST PASCO     N/A         41  31  67  CALM    30.45R
$$

WAZ029-061810-
FOOTHILLS OF THE BLUES...WASHINGTON

CITY            SKY/WX      TMP DP  RH  WIND    PRES   REMARKS
WALLA WALLA AP  PTCLDY      54  29  38  CALM    30.38R
#DAYTON SCHOOL  N/A         51  21  30  CALM    30.38S
#LOWDEN 2SE     N/A         40  32  73  SW1     30.37R
#PLEASANT VIEW 1N/A         42  30  62  CALM    30.46R
#PRESCOTT       N/A         47  33  58  E3      30.40S
#SUDBURY        N/A         45  N/A N/A CALM    N/A
#WHITMAN COLLEGEN/A         51  31  46  E2      30.44R
#WAITSBURG 5S   N/A         52  27  38  SW2     30.48S
#WAITSBURG 8N   N/A         54  12  18  S6      30.24S
#WALLA WALLA 5E N/A         56  34  43  SW2     N/A
#WALLA WALLA U  N/A         46  35  65  CALM    30.41R
#WHITMAN MISSIONN/A         40  34  79  SW2     30.43R
$$

WAZ030-061810-
BLUE MOUNTAINS...WASHINGTON

CITY            SKY/WX      TMP DP  RH  WIND    PRES   REMARKS
#DIXIE 5SE      N/A         53  13  20  SW7     30.31R
#SKI BLUEWOOD   N/A         42  21  43  W7      30.36R
$$

ORZ009-041-WAZ024-061810-
COLUMBIA RIVER GORGE

CITY            SKY/WX      TMP DP  RH  WIND    PRES   REMARKS
HOOD RIVER AP   MOCLDY      41  34  76  CALM    30.43R
THE DALLES AP   MOCLDY      41  34  76  CALM    30.43R
#ARLINGTON AIRPON/A         40  35  82  W3      30.00S
#ARLINGTON HS   N/A         41  34  76  CALM    30.35S
#CELILO DOT     N/A         41  33  73  CALM    N/A
#MOSIER 1S      N/A         42  30  62  CALM    30.38S
#MURDOCK        N/A         42  36  79  CALM    30.46R
#RUFUS DOT      N/A         N/A N/A N/A CALM    N/A

$$

ORZ510-061810-
NORTH CENTRAL OREGON

CITY            SKY/WX      TMP DP  RH  WIND    PRES   REMARKS
#CHENOWITH 1W   N/A         44  33  65  NW3     N/A
#COW CYN RST AREN/A         44  26  49  SW3     N/A
#DUFUR 9E       N/A         50  32  50  SW2     30.43R
#GRASS VALLEY 1SN/A         45  34  65  SW7     30.43S
#KENT DOT       N/A         48  27  44  SW5     N/A
#MAUPIN SCHOOL  N/A         38  31  76  CALM    30.43R
#MORO SCHOOL    N/A         50  39  66  SW1     30.37S
#SHANIKO 5WSW   N/A         47  21  35  S8      N/A
#SHANIKO 4NW    N/A         48  25  40  SW2     30.37R
#TYGH VALLEY 2NEN/A         37  32  82  CALM    30.43R
#WAPANITIA AIRPON/A         42  32  67  CALM    30.43S
#WASCO DOT      N/A         44  35  70  CALM    N/A
#WASCO AIRPORT  N/A         44  32  62  CALM    N/A
#WASCO 5NE      N/A         45  35  68  SW2     30.41R
$$

ORZ511-061810-
CENTRAL OREGON

CITY            SKY/WX      TMP DP  RH  WIND    PRES   REMARKS
BEND AIRPORT    PTCLDY      45  23  41  CALM    30.39S
MADRAS AIRPORT  MOCLDY      43  27  53  CALM    30.42R
PRINEVILLE AP   PTCLDY      46  25  43  NE5     30.40R
REDMOND AIRPORT PTCLDY      45  26  47  SE5     30.39S
#BEND 6E        N/A         46  24  42  CALM    30.40F
#BEND 1SW       N/A         42  29  60  SW1     N/A
#BEND-AWBREY    N/A         43  30  60  S3      30.39S
#BEND-KIM LN    N/A         44  29  55  SW5     30.37R
#CROOKED RVR RANN/A         42  28  57  W3      30.41R
#CULVER         N/A         42  29  60  CALM    30.36R
#CULVER 1E      N/A         42  30  62  N1      30.40R
#LAKE BILLY CHINN/A         40   9  27  NW3     30.45F
#POWELL BUTTE   N/A         53  32  45  N1      29.99R
#PRINEVILLE 3N  N/A         41  30  65  NW1     30.40S
#WARM SPRINGS   N/A         41  32  70  CALM    30.38S

$$


ORZ509-061810-
EAST SLOPES OF OREGON CASCADES

CITY            SKY/WX      TMP DP  RH  WIND    PRES   REMARKS
#BLUE BOX PASS  N/A         44  -7  11  CALM    N/A
#CAMP SHERMAN   N/A         32  25  75  CALM    30.52F
#LA PINE DOT    N/A         37  24  59  S3      N/A
#LA PINE 4NW    N/A         37  26  64  CALM    30.52F
#LAVA BUTTE DOT N/A         40  24  52  S1      N/A
#MT BACHELOR-MIDN/A         41   1  18  S14     N/A    WCI 33
#SISTERS AIRPOR N/A         39  30  70  CALM    30.17S
#SISTERS ODOT   N/A         41  N/A N/A CALM    N/A
#SISTERS 1NW    N/A         37  25  61  NE7     N/A
#SISTERS 3N     N/A         42  27  55  CALM    30.37S
#SUNRIVER       N/A         36  27  69  S3      30.36F
#TUMALO 3W      N/A         47  25  42  CALM    30.25S
#WANOGA BUTTE D N/A         45   8  21  W7      N/A

$$

ORZ044-061810-
LOWER COLUMBIA BASIN...OREGON

CITY            SKY/WX      TMP DP  RH  WIND    PRES   REMARKS
HERMISTON       MOCLDY      43  30  60  CALM    30.40R
#BOARDMAN 8SW   N/A         42  37  82  N1      30.41R
#IONE SCHOOL    N/A         46  32  58  CALM    30.36R
#IRRIGON 4NW    N/A         39  33  79  CALM    N/A
#UMATILLA SCHOOLN/A         41  36  82  CALM    30.38F
#UMATILLA       N/A         42  31  65  CALM    30.39S
$$

ORZ507-061810-
NORTHERN FOOTHILLS OF THE BLUES

CITY            SKY/WX      TMP DP  RH  WIND    PRES   REMARKS
PENDLETON AIRPT PTCLDY      50  26  39  CALM    30.37S
#ADAMS 3WNW     N/A         55  32  41  CALM    30.42S
#ATHENA         N/A         57  25  29  E1      30.42R
#CAYUSE         N/A         54  29  38  E5      30.38R
#HELIX SCHOOL   N/A         51  30  44  S1      30.42R
#HELIX 3N       N/A         53  28  38  S5      30.32R
#HELIX 6SW      N/A         51  29  42  E1      30.36R
#HOLDMAN 5SE    N/A         55  34  45  CALM    30.37R
#HOLDMAN 6E     N/A         52  29  41  N1      30.21S
#M-F FERNDALE   N/A         40  30  67  CALM    30.37R
#M-F GROVE ELEM N/A         45  27  49  CALM    30.36R
#M-FREEWATER 5SEN/A         55  29  37  NE7     30.36R
#PENDLETON DNTN N/A         45  33  63  CALM    30.37S
#PDT AQUATIC CTRN/A         45  30  55  CALM    30.37S
#PENDLETON 5NE  N/A         49  35  58  CALM    30.33R
#PDT SUNRIDGE   N/A         44  32  62  CALM    30.40R
#PENDLETON 7NW  N/A         53  34  48  CALM    N/A
#PILOT ROCK     N/A         58  24  27  CALM    30.37S
#TUTUILLA       N/A         46  31  56  N1      30.41R
#UMAPINE 2E     N/A         42  33  70  S1      30.37R
#WESTON SCHOOL  N/A         59  17  19  SW2     30.35R

$$

ORZ508-061810-
SOUTHERN FOOTHILLS OF THE BLUES

CITY            SKY/WX      TMP DP  RH  WIND    PRES   REMARKS
LEXINGTON       MOCLDY      55  28  35  CALM    30.38R
#AJAX           N/A         45  24  43  CALM    30.29R
#CONDON SCHOOL  N/A         46  29  51  CALM    30.31R
#CONDON 5W      N/A         48  24  39  S6      30.35R
#FOSSIL SCHOOL  N/A         48  32  54  CALM    30.32S
#HEPPNER EOC    N/A         52  28  39  E2      30.34S
#HEPPNER 4NE    N/A         56  22  26  NW2     30.37S
#LEXINGTON 2SE  N/A         55  29  37  SE2     30.35S
#MIKKALO        N/A         49  30  48  CALM    30.36R
#OLEX 4N        N/A         46  36  68  CALM    30.36S
#RUGGS 5NE      N/A         57  30  35  NE1     30.52S
#RUGGS 2SW      N/A         53  26  35  SW13    30.40S

$$

ORZ502-503-061810-
BLUE MOUNTAINS

CITY            SKY/WX      TMP DP  RH  WIND    PRES   REMARKS
MEACHAM         SUNNY       40  27  59  CALM    30.39S
#BATTLE MTN DOT N/A         36  29  75  S8      N/A
#HEPPNER 15SE   N/A         48  22  35  CALM    30.30S
#LADD CYN SMT   N/A         39  19  44  SE15    N/A    WCI 31
#LADD CREEK ODOTN/A         34  24  66  SW3     N/A
#LONG CREEK HS  N/A         41  32  70  CALM    30.37S
#N POWDER DOT   N/A         36  28  72  CALM    N/A
#PIKES PEAK     N/A         50  17  27  SW7     27.99S
#TROY SCHOOL    N/A         41  30  65  S1      30.35F
#UKIAH          N/A         31  28  88  CALM    30.57F
#WESTON 4E      N/A         53  22  29  SE6     30.35R
$$

ORZ505-061810-
JOHN DAY BASIN

CITY            SKY/WX      TMP DP  RH  WIND    PRES   REMARKS
JOHN DAY        SUNNY       43  25  49  E3      30.43S
#DAYVILLE SCHOOLN/A         35  26  69  CALM    30.40S
#MONUMENT HS    N/A         39  26  59  CALM    30.43F
#MT. VERNON 5SE N/A         42  27  55  CALM    30.37S
#SPRAY SCHOOL   N/A         39  N/A N/A CALM    N/A
#WINLOCK        N/A         50  23  34  CALM    30.46R
$$

ORZ506-061810-
OCHOCO AND JOHN DAY HIGHLANDS

CITY            SKY/WX      TMP DP  RH  WIND    PRES   REMARKS
#BUCK CREEK DOT N/A         48  48  100 CALM    N/A
#HORSE RIDGE DO N/A         38  24  57  CALM    N/A
#KEYES SMT DOT  N/A         40  26  57  CALM    N/A
#PAULINA SCHOOL N/A         38  29  70  CALM    30.37R
#PRAIRIE CITY   N/A         40  27  59  CALM    30.52F
#SENECA         N/A         33  N/A N/A CALM    N/A
#SENECA 9NW     N/A         29  23  78  CALM    30.55S
$$

ORZ049-061810-
GRANDE RONDE VALLEY

CITY            SKY/WX      TMP DP  RH  WIND    PRES   REMARKS
LA GRANDE       SUNNY       39  23  52  CALM    30.43S
#COVE           N/A         37  28  70  SE1     30.41S
#COVE SCHOOL    N/A         40  29  64  CALM    30.37S
#ELGIN 3N       N/A         39  26  59  CALM    30.38S
#ELGIN 1E       N/A         34  26  72  CALM    N/A
#IMBLER SCHOOL  N/A         40  25  55  CALM    30.36S
#ISLAND CITY 4N N/A         42  40  93  CALM    30.40R
#LADD CYN DOT   N/A         38  25  59  CALM    N/A
#LA GRANDE ELEM N/A         42  26  53  NE2     30.42R
#UNION 1S       N/A         40  27  59  W3      30.39F
$$

ORZ050-061810-
WALLOWA COUNTY

CITY            SKY/WX      TMP DP  RH  WIND    PRES   REMARKS
JOSEPH AIRPORT  SUNNY       43  23  45  CALM    30.41S
#ENTERPRISE HS  N/A         36  27  69  CALM    30.39S
#IMNAHA SCHOOL  N/A         43  27  53  S3      30.41F
#IMNAHA 10S     N/A         35  24  64  SW1     30.37F
#JOSEPH 3N      N/A         36  26  67  CALM    30.38S
#JOSEPH 3W      N/A         44  22  41  E1      30.20R
#LOSTINE        N/A         38  26  62  CALM    30.32F
#MT HOWARD 8000 N/A         41   0  17  SW1     30.41R
#PROMISE 1S     N/A         43  25  49  CALM    30.52F
#SHEEP RDG 7000 N/A         43  10  25  CALM    30.42R
#WALLOWA SCHOOL N/A         31  24  75  CALM    31.53F



$$



USA.gov is the U.S. government's official web portal to all federal, state and local government web resources and services.